Elizabeth City, NC

6:15 AM EDT on September 20, 2017 (GMT -0400)
Elizabeth City Cgas-Regional

Weather History for KECG - August, 2013

Change the Weather History Date:

Monday, August 5, 2013

  Actual Average Record
Temperature  
Mean Temperature 72 °F 78 °F  
Max Temperature 82 °F 87 °F 97 °F (1995)
Min Temperature 62 °F 70 °F 55 °F (1976)
Degree Days  
Heating Degree Days 0 0  
Month to date heating degree days 0 0  
Since 1 June heating degree days 0 3  
Since 1 July heating degree days 0 0  
Cooling Degree Days 7 14  
Month to date cooling degree days 58 70  
Year to date cooling degree days 1084 974  
Since 1 June cooling degree days 878 810  
Growing Degree Days 22 (Base 50)    
Moisture  
Dew Point 61 °F    
Average Humidity 71    
Maximum Humidity 93    
Minimum Humidity 49    
Precipitation  
Precipitation 0.00 in 0.22 in 2.83 in (1942)
Month to date precipitation 1.50 1.08  
Year to date precipitation 25.27 28.40  
Snow  
Snow 0.00 in - 0.00 in (2002)
Month to date snowfall 0.0  
Since 1 July snowfall 0.0  
Snow Depth 0.00 in    
Sea Level Pressure  
Sea Level Pressure 30.05 in    
Wind  
Wind Speed 4 mph (SSE)    
Max Wind Speed 10 mph    
Max Gust Speed 13 mph    
Visibility 10 miles    
Events      
T = Trace of Precipitation, MM = Missing Value Source: NWS Daily Summary

Daily Weather History Graph

Daily Weather History Graph

Search for Another Location

Airport or City:

Trip Planner

Search our weather history database for the weather conditions in past years. The results will help you decide how hot, cold, wet, or windy it might be!

Date:

Astronomy

Aug. 05, 2013 Rise Set
Actual Time 6:14 AM EDT 8:05 PM EDT
Civil Twilight 5:46 AM EDT 8:33 PM EDT
Nautical Twilight 5:12 AM EDT 9:07 PM EDT
Astronomical Twilight 4:36 AM EDT 9:43 PM EDT
Moon 5:07 AM EDT (8/5) 7:06 PM EDT (8/5)
Length of Visible Light 14h 47m
Length of Day
13h 51m
Waning Crescent, 1% of the Moon is Illuminated
Aug 5
Waning Crescent
Aug 6
New
Aug 14
First Quarter
Aug 20
Full
Aug 28
Last Quarter

Hourly Weather History & Observations

Time (EDT) Temp. Heat Index Dew Point Humidity Pressure Visibility Wind Dir Wind Speed Gust Speed Precip Events Conditions
12:54 AM 64.0 °F - 62.1 °F 93% 30.02 in 10.0 mi Calm Calm - N/A   Clear
1:54 AM 64.0 °F - 61.0 °F 90% 30.01 in 10.0 mi Calm Calm - N/A   Clear
2:54 AM 62.1 °F - 60.1 °F 93% 30.03 in 10.0 mi West 3.5 mph - N/A   Clear
3:54 AM 63.0 °F - 60.1 °F 90% 30.02 in 10.0 mi West 3.5 mph - N/A   Clear
4:54 AM 63.0 °F - 60.1 °F 90% 30.04 in 10.0 mi WNW 4.6 mph - N/A   Clear
5:54 AM 62.1 °F - 60.1 °F 93% 30.04 in 10.0 mi NW 4.6 mph - N/A   Clear
6:54 AM 66.0 °F - 63.0 °F 90% 30.05 in 10.0 mi Calm Calm - N/A   Clear
7:54 AM 71.1 °F - 64.9 °F 81% 30.07 in 10.0 mi Calm Calm - N/A   Clear
8:54 AM 75.9 °F - 63.0 °F 64% 30.08 in 10.0 mi Calm Calm - N/A   Clear
9:54 AM 77.0 °F - 63.0 °F 62% 30.08 in 10.0 mi North 4.6 mph - N/A   Clear
10:54 AM 79.0 °F - 61.0 °F 54% 30.09 in 10.0 mi Calm Calm - N/A   Clear
11:54 AM 80.1 °F 80.7 °F 59.0 °F 48% 30.09 in 10.0 mi Calm Calm - N/A   Clear
12:54 PM 81.0 °F 81.3 °F 59.0 °F 47% 30.08 in 10.0 mi West 3.5 mph - N/A   Scattered Clouds
1:54 PM 80.1 °F 80.7 °F 59.0 °F 48% 30.06 in 10.0 mi ESE 6.9 mph - N/A   Mostly Cloudy
2:54 PM 80.1 °F 80.9 °F 60.1 °F 50% 30.05 in 10.0 mi SE 5.8 mph - N/A   Scattered Clouds
3:54 PM 79.0 °F - 61.0 °F 54% 30.04 in 10.0 mi SE 6.9 mph - N/A   Overcast
4:54 PM 79.0 °F - 60.1 °F 52% 30.04 in 10.0 mi SE 6.9 mph - N/A   Overcast
5:54 PM 79.0 °F - 59.0 °F 50% 30.04 in 10.0 mi ESE 5.8 mph - N/A   Mostly Cloudy
6:54 PM 78.1 °F - 60.1 °F 54% 30.04 in 10.0 mi ESE 5.8 mph - N/A   Clear
7:54 PM 73.9 °F - 63.0 °F 68% 30.05 in 10.0 mi Calm Calm - N/A   Clear
8:54 PM 72.0 °F - 61.0 °F 68% 30.07 in 10.0 mi ESE 4.6 mph - N/A   Clear
9:54 PM 70.0 °F - 60.1 °F 71% 30.07 in 10.0 mi Calm Calm - N/A   Clear
10:54 PM 73.0 °F - 57.0 °F 57% 30.06 in 10.0 mi SSE 4.6 mph - N/A   Clear
11:54 PM 72.0 °F - 59.0 °F 64% 30.06 in 10.0 mi SSE 5.8 mph - N/A   Clear